Regional Weather Roundup
Issued by NWS

Home | Current Version | Previous Version | Text Only | Print | Product List | Glossary On
Versions: 1 2 3 4 5 6 7 8 9 10 11 12 13 14 15 16 17 18 19 20 21 22 23 24 25 26 27 28 29 30 31 32 33 34 35 36 37 38 39 40 41 42 43 44 45 46 47 48 49 50
000
ASUS45 KBOU 010207
RWRCO

WEATHER ROUNDUP FOR COLORADO
NATIONAL WEATHER SERVICE DENVER/BOULDER CO
800 PM MDT THU JUL 31 2014

NOTE: "FAIR" INDICATES FEW OR NO CLOUDS BELOW 12000 FEET WITH NO
SIGNIFICANT WEATHER AND/OR OBSTRUCTIONS TO VISIBILITY.

COZ001>005-013-030-031-010300-
...NORTHWEST COLORADO...

CITY           SKY/WX    TMP DP  RH WIND       PRES   REMARKS
CRAIG          CLOUDY    63  53  70 E6        30.20R
HAYDEN         PTCLDY    70  48  46 SE6       30.23R
MEEKER         CLEAR     74  46  36 N6        30.20S
MOUNT WERNER   NOT AVBL
STEAMBOAT SPGS PTCLDY    67  51  56 E3        30.26S
WALDEN         CLEAR     61  39  44 NE13      30.36S
$$

COZ006>008-011-010300-
...WEST CENTRAL VALLEYS...

CITY           SKY/WX    TMP DP  RH WIND       PRES   REMARKS
GRAND JUNCTION MOCLDY    80  50  34 W5        30.05F
MONTROSE       MOCLDY    79  54  41 S10       30.16S
EAGLE          MOCLDY    66  55  68 CALM      30.26S
RIFLE          MOCLDY    81  47  30 NE7       30.12R
DELTA          MOCLDY    85  48  28 N10       30.08S
NUCLA          MOCLDY    79  45  29 NW6       30.18S
$$

COZ017>023-064>068-010300-
...SOUTHWEST COLORADO...

CITY           SKY/WX    TMP DP  RH WIND       PRES   REMARKS
DURANGO        CLOUDY    73  51  46 S8        30.23S
CORTEZ         CLEAR     74  51  44 S5        30.14S
PAGOSA SPRINGS CLOUDY    64  56  75 CALM      30.33R
TELLURIDE      MOCLDY    66  46  48 W5        30.40S
WOLF CREEK PAS NOT AVBL
$$

COZ009-010-012-014-032>034-037-058>063-010300-
...CENTRAL COLORADO...

CITY           SKY/WX    TMP DP  RH WIND       PRES   REMARKS
ASPEN          MOCLDY    62  50  64 SE7       30.32S
BUENA VISTA    CLOUDY    54  51  87 E6        30.42S
COPPER MTN     PTCLDY    52  41  66 W6        30.64S
BERTHOUD PASS  FOG       37  36  93 E22       30.68R VSB<1/4
COTTONWOOD PAS CLOUDY    52  46  82 CALM      30.52F
GUNNISON       CLOUDY    68  45  42 E20G26    30.32R
KREMMLING      PTCLDY    64  48  55 CALM      30.31S
LEADVILLE      MOCLDY    49  47  93 S8          N/A
MONARCH PASS   LGT RAIN  43  41  93 NE22      30.72F VSB<1/4
SALIDA         CLOUDY    57  55  92 NW3       30.46S
SUNLIGHT       CLOUDY    54  46  76 CALM      30.55S
WILKERSON PASS CLOUDY    43  43 100 NE6       30.63S FOG
$$

COZ069>075-010300-
...SAN LUIS VALLEY/SANGRE DE CRISTO MOUNTAINS...

CITY           SKY/WX    TMP DP  RH WIND       PRES   REMARKS
ALAMOSA        CLOUDY    60  51  72 SE12      30.33S
LA VETA PASS   FOG       46  46 100 E7        30.54R VSB 1/4
SAGUACHE       CLOUDY    61  50  67 SW6       30.38S
$$

COZ035-036-038>040-010300-
...NORTHERN COLORADO FRONT RANGE...

CITY           SKY/WX    TMP DP  RH WIND       PRES   REMARKS
DENVER INTL AP MOCLDY    71  47  42 SE3       30.25R
DMNS CITY PARK   N/A     69  51  52 S1        30.26R
AURORA         MOCLDY    68  54  59 S5        30.28R
FRONT RANGE AP MOCLDY    73  50  43 SE3       30.26R
ERIE MUNI ARPT PTCLDY    72  45  38 CALM      30.24R
BOULDER MUN AP PTCLDY    70  48  46 E5        30.24S
CENTENNIAL     PTCLDY    69  50  50 CALM      30.28R
BROOMFIELD     MOCLDY    72  46  40 E3        30.28R
FORT COLLINS   CLEAR     73  48  40 S6        30.22R
LONGMONT       CLEAR     74  46  36 CALM      30.25R
$$

COZ041-046-047-076>085-087-088-010300-
...PIKES PEAK/PALMER DIVIDE AND SOUTHERN FOOTHILLS...

CITY           SKY/WX    TMP DP  RH WIND       PRES   REMARKS
COLO. SPRINGS  MOCLDY    63  56  78 S7        30.33R
A. F. ACADEMY  MOCLDY    61  57  87 S3        30.34R
ELLICOTT       MOCLDY    63  55  75 SW6       30.32R
FALCON         CLOUDY    60  54  80 SW3       30.37R
FORT CARSON    MOCLDY    63  58  82 SW5       30.31R
LIMON          PTCLDY    67  49  52 SW10      30.26R
MONUMENT HILL  MOCLDY    59  52  77 SE5       30.35S
TRINIDAD       CLOUDY    66  53  63 NW3       30.29S
$$

COZ042>045-048>051-090-091-010300-
...NORTHEAST COLORADO...

CITY           SKY/WX    TMP DP  RH WIND       PRES   REMARKS
GREELEY ARPT   NOT AVBL
AKRON          CLEAR     75  47  36 SE3       30.20R
BURLINGTON     CLEAR     70  54  56 S6        30.18R
WRAY             N/A     77  54  44 SW5       30.13S
STERLING       CLEAR     75  63  64 SW7       30.14S
HOLYOKE        CLEAR     75  61  60 NW3       30.13R
FORT MORGAN    CLEAR     73  52  48 SE3       30.19S
$$

COZ086-089-092>099-010300-
...SOUTHEAST COLORADO...

CITY           SKY/WX    TMP DP  RH WIND       PRES   REMARKS
PUEBLO         PTCLDY    69  55  60 SW3       30.24R
LA JUNTA       PTCLDY    72  57  59 E3        30.21R
LAMAR          PTCLDY    72  58  61 S5        30.17R
SPRINGFIELD      N/A     68  54  60 NE5       30.22R
$$



USA.gov is the U.S. government's official web portal to all federal, state and local government web resources and services.